Time,TemperatureF,DewpointF,PressureIn,WindDirection,WindDirectionDegrees,WindSpeedMPH,WindSpeedGustMPH,Humidity,HourlyPrecipIn,Conditions,Clouds,dailyrainin,SoftwareType,DateUTC
2013-11-11 00:02:00,58.2,49.0,30.17,SSW,212,20.0,21.0,72,0.00,,,0.00,weatherlink.com 1.10,2013-11-11 05:02:00,
2013-11-11 00:17:00,58.4,49.0,30.17,SSW,212,17.0,29.0,71,0.00,,,0.00,weatherlink.com 1.10,2013-11-11 05:17:00,
2013-11-11 00:32:00,57.8,47.0,30.18,SSW,194,25.0,31.0,68,0.00,,,0.00,weatherlink.com 1.10,2013-11-11 05:32:00,
2013-11-11 00:47:00,57.2,47.0,30.18,SW,219,25.0,34.0,69,0.00,,,0.00,weatherlink.com 1.10,2013-11-11 05:47:00,
2013-11-11 01:02:00,57.0,46.0,30.19,SW,216,25.0,31.0,68,0.00,,,0.00,weatherlink.com 1.10,2013-11-11 06:02:00,
2013-11-11 01:17:00,56.5,47.0,30.19,SW,236,19.0,30.0,70,0.00,,,0.00,weatherlink.com 1.10,2013-11-11 06:17:00,
2013-11-11 01:32:00,56.0,46.0,30.20,SW,231,23.0,35.0,70,0.00,,,0.00,weatherlink.com 1.10,2013-11-11 06:32:00,
2013-11-11 01:47:00,55.1,45.0,30.20,SSW,210,28.0,31.0,70,0.00,,,0.00,weatherlink.com 1.10,2013-11-11 06:47:00,
2013-11-11 02:02:00,54.7,45.0,30.21,SSW,207,22.0,31.0,69,0.00,,,0.00,weatherlink.com 1.10,2013-11-11 07:02:00,
2013-11-11 02:17:00,54.3,44.0,30.21,SSW,210,28.0,33.0,69,0.00,,,0.00,weatherlink.com 1.10,2013-11-11 07:17:00,
2013-11-11 02:32:00,54.0,44.0,30.21,South,179,17.0,31.0,69,0.00,,,0.00,weatherlink.com 1.10,2013-11-11 07:32:00,
2013-11-11 02:47:00,53.8,43.0,30.22,SSW,206,16.0,31.0,68,0.00,,,0.00,weatherlink.com 1.10,2013-11-11 07:47:00,
2013-11-11 03:03:00,53.7,44.0,30.22,SSW,205,23.0,28.0,70,0.00,,,0.00,weatherlink.com 1.10,2013-11-11 08:03:00,
2013-11-11 03:18:00,53.5,43.0,30.22,SW,225,23.0,28.0,68,0.00,,,0.00,weatherlink.com 1.10,2013-11-11 08:18:00,
2013-11-11 03:33:00,53.4,43.0,30.23,SSW,195,20.0,29.0,68,0.00,,,0.00,weatherlink.com 1.10,2013-11-11 08:33:00,
2013-11-11 03:48:00,53.3,42.0,30.23,SW,217,26.0,26.0,66,0.00,,,0.00,weatherlink.com 1.10,2013-11-11 08:48:00,
2013-11-11 04:03:00,53.3,43.0,30.23,SSW,213,15.0,24.0,69,0.00,,,0.00,weatherlink.com 1.10,2013-11-11 09:03:00,
2013-11-11 04:18:00,53.2,43.0,30.23,SW,223,13.0,27.0,68,0.00,,,0.00,weatherlink.com 1.10,2013-11-11 09:18:00,
2013-11-11 04:33:00,53.1,43.0,30.23,SSW,212,15.0,25.0,68,0.00,,,0.00,weatherlink.com 1.10,2013-11-11 09:33:00,
2013-11-11 04:48:00,53.1,43.0,30.24,SSW,202,13.0,26.0,69,0.00,,,0.00,weatherlink.com 1.10,2013-11-11 09:48:00,
2013-11-11 05:03:00,52.9,43.0,30.25,WSW,244,11.0,23.0,69,0.00,,,0.00,weatherlink.com 1.10,2013-11-11 10:03:00,
2013-11-11 05:18:00,52.9,43.0,30.25,SW,220,16.0,24.0,68,0.00,,,0.00,weatherlink.com 1.10,2013-11-11 10:18:00,
2013-11-11 05:33:00,52.9,42.0,30.25,SW,215,19.0,23.0,67,0.00,,,0.00,weatherlink.com 1.10,2013-11-11 10:33:00,
2013-11-11 05:48:00,53.0,41.0,30.26,SW,215,15.0,25.0,65,0.00,,,0.00,weatherlink.com 1.10,2013-11-11 10:48:00,
2013-11-11 06:03:00,53.0,42.0,30.26,SSE,163,16.0,28.0,67,0.00,,,0.00,weatherlink.com 1.10,2013-11-11 11:03:00,
2013-11-11 06:18:00,52.9,42.0,30.26,SSW,198,12.0,23.0,67,0.00,,,0.00,weatherlink.com 1.10,2013-11-11 11:18:00,
2013-11-11 06:33:00,53.0,42.0,30.27,SSW,212,18.0,25.0,67,0.00,,,0.00,weatherlink.com 1.10,2013-11-11 11:33:00,
2013-11-11 06:48:00,53.1,42.0,30.27,SW,221,17.0,24.0,65,0.00,,,0.00,weatherlink.com 1.10,2013-11-11 11:48:00,
2013-11-11 07:03:00,53.3,43.0,30.27,SSW,207,21.0,25.0,67,0.00,,,0.00,weatherlink.com 1.10,2013-11-11 12:03:00,
2013-11-11 07:18:00,53.5,41.0,30.28,SW,216,16.0,23.0,64,0.00,,,0.00,weatherlink.com 1.10,2013-11-11 12:18:00,
2013-11-11 07:33:00,53.7,42.0,30.29,WSW,243,18.0,21.0,65,0.00,,,0.00,weatherlink.com 1.10,2013-11-11 12:33:00,
2013-11-11 07:48:00,54.1,43.0,30.29,SSW,210,9.0,21.0,66,0.00,,,0.00,weatherlink.com 1.10,2013-11-11 12:48:00,
2013-11-11 08:03:00,54.3,43.0,30.29,South,184,10.0,19.0,66,0.00,,,0.00,weatherlink.com 1.10,2013-11-11 13:03:00,
2013-11-11 08:18:00,54.4,42.0,30.30,SW,218,12.0,20.0,64,0.00,,,0.00,weatherlink.com 1.10,2013-11-11 13:18:00,
2013-11-11 08:33:00,54.8,44.0,30.30,SW,219,9.0,20.0,66,0.00,,,0.00,weatherlink.com 1.10,2013-11-11 13:33:00,
2013-11-11 08:48:00,54.9,43.0,30.30,West,261,8.0,19.0,65,0.00,,,0.00,weatherlink.com 1.10,2013-11-11 13:48:00,
2013-11-11 09:03:00,54.8,44.0,30.30,South,174,7.0,20.0,67,0.00,,,0.00,weatherlink.com 1.10,2013-11-11 14:03:00,
2013-11-11 09:18:00,55.1,44.0,30.31,WSW,245,9.0,18.0,67,0.00,,,0.00,weatherlink.com 1.10,2013-11-11 14:18:00,
2013-11-11 09:33:00,55.1,44.0,30.31,SSE,152,10.0,20.0,67,0.00,,,0.00,weatherlink.com 1.10,2013-11-11 14:33:00,
2013-11-11 09:48:00,55.3,44.0,30.31,SW,225,18.0,22.0,66,0.00,,,0.00,weatherlink.com 1.10,2013-11-11 14:48:00,
2013-11-11 10:03:00,55.5,44.0,30.31,SSW,206,7.0,20.0,66,0.00,,,0.00,weatherlink.com 1.10,2013-11-11 15:03:00,
2013-11-11 10:18:00,55.3,44.0,30.31,SSW,193,7.0,22.0,66,0.00,,,0.00,weatherlink.com 1.10,2013-11-11 15:18:00,
2013-11-11 10:33:00,55.5,43.0,30.30,SSW,209,10.0,17.0,63,0.00,,,0.00,weatherlink.com 1.10,2013-11-11 15:33:00,
2013-11-11 10:48:00,55.5,43.0,30.30,SW,230,10.0,19.0,64,0.00,,,0.00,weatherlink.com 1.10,2013-11-11 15:48:00,
2013-11-11 11:03:00,55.7,44.0,30.30,SSW,212,15.0,17.0,65,0.00,,,0.00,weatherlink.com 1.10,2013-11-11 16:03:00,
2013-11-11 11:18:00,55.6,43.0,30.30,SSW,210,14.0,19.0,64,0.00,,,0.00,weatherlink.com 1.10,2013-11-11 16:18:00,
2013-11-11 11:33:00,56.0,44.0,30.29,WSW,240,12.0,17.0,65,0.00,,,0.00,weatherlink.com 1.10,2013-11-11 16:33:00,
2013-11-11 11:48:00,56.1,43.0,30.29,SSW,195,4.0,17.0,63,0.00,,,0.00,weatherlink.com 1.10,2013-11-11 16:48:00,
2013-11-11 12:03:00,55.9,43.0,30.27,WSW,241,10.0,16.0,63,0.00,,,0.00,weatherlink.com 1.10,2013-11-11 17:03:00,
2013-11-11 12:18:00,56.1,44.0,30.27,WSW,240,11.0,16.0,64,0.00,,,0.00,weatherlink.com 1.10,2013-11-11 17:18:00,
2013-11-11 12:33:00,56.2,44.0,30.27,SSW,194,9.0,15.0,64,0.00,,,0.00,weatherlink.com 1.10,2013-11-11 17:33:00,
2013-11-11 12:48:00,56.0,43.0,30.26,SSW,200,9.0,16.0,63,0.00,,,0.00,weatherlink.com 1.10,2013-11-11 17:48:00,
2013-11-11 13:03:00,56.2,44.0,30.26,SSW,200,6.0,14.0,63,0.00,,,0.00,weatherlink.com 1.10,2013-11-11 18:03:00,
2013-11-11 13:18:00,56.5,43.0,30.26,SW,216,10.0,13.0,62,0.00,,,0.00,weatherlink.com 1.10,2013-11-11 18:18:00,
2013-11-11 13:33:00,56.3,44.0,30.26,SSW,193,9.0,14.0,63,0.00,,,0.00,weatherlink.com 1.10,2013-11-11 18:33:00,
2013-11-11 13:48:00,56.5,44.0,30.26,SSW,196,6.0,12.0,64,0.00,,,0.00,weatherlink.com 1.10,2013-11-11 18:48:00,
2013-11-11 14:03:00,56.7,45.0,30.25,SW,225,7.0,12.0,66,0.00,,,0.00,weatherlink.com 1.10,2013-11-11 19:03:00,
2013-11-11 14:18:00,56.6,44.0,30.25,SSW,200,9.0,12.0,64,0.00,,,0.00,weatherlink.com 1.10,2013-11-11 19:18:00,
2013-11-11 14:33:00,56.2,45.0,30.24,South,174,5.0,13.0,67,0.00,,,0.00,weatherlink.com 1.10,2013-11-11 19:33:00,
2013-11-11 14:48:00,56.7,45.0,30.24,SSW,198,6.0,10.0,66,0.00,,,0.00,weatherlink.com 1.10,2013-11-11 19:48:00,
2013-11-11 15:04:00,56.4,45.0,30.24,South,175,5.0,10.0,67,0.00,,,0.00,weatherlink.com 1.10,2013-11-11 20:04:00,
2013-11-11 15:19:00,56.4,46.0,30.24,South,181,4.0,10.0,68,0.00,,,0.00,weatherlink.com 1.10,2013-11-11 20:19:00,
2013-11-11 15:34:00,56.0,46.0,30.23,SSW,199,5.0,11.0,68,0.00,,,0.00,weatherlink.com 1.10,2013-11-11 20:34:00,
2013-11-11 15:49:00,55.9,46.0,30.23,SW,233,5.0,10.0,69,0.00,,,0.00,weatherlink.com 1.10,2013-11-11 20:49:00,
2013-11-11 16:04:00,55.7,46.0,30.23,South,179,9.0,10.0,70,0.00,,,0.00,weatherlink.com 1.10,2013-11-11 21:04:00,
2013-11-11 16:19:00,55.6,46.0,30.23,ESE,113,3.0,10.0,70,0.00,,,0.00,weatherlink.com 1.10,2013-11-11 21:19:00,
2013-11-11 16:34:00,55.3,46.0,30.23,SSW,212,6.0,9.0,71,0.00,,,0.00,weatherlink.com 1.10,2013-11-11 21:34:00,
2013-11-11 16:49:00,54.7,45.0,30.22,South,185,5.0,9.0,71,0.00,,,0.00,weatherlink.com 1.10,2013-11-11 21:49:00,
2013-11-11 17:04:00,53.8,45.0,30.22,SSW,201,4.0,8.0,73,0.00,,,0.00,weatherlink.com 1.10,2013-11-11 22:04:00,
2013-11-11 17:19:00,53.3,46.0,30.21,SSE,165,2.0,6.0,75,0.00,,,0.00,weatherlink.com 1.10,2013-11-11 22:19:00,
2013-11-11 17:34:00,53.0,46.0,30.22,SSW,200,3.0,5.0,76,0.00,,,0.00,weatherlink.com 1.10,2013-11-11 22:34:00,
2013-11-11 17:49:00,52.9,46.0,30.22,South,186,2.0,6.0,76,0.00,,,0.00,weatherlink.com 1.10,2013-11-11 22:49:00,
2013-11-11 18:04:00,53.0,46.0,30.22,SSE,167,2.0,5.0,76,0.00,,,0.00,weatherlink.com 1.10,2013-11-11 23:04:00,
2013-11-11 18:19:00,52.9,46.0,30.22,SSE,165,3.0,4.0,76,0.00,,,0.00,weatherlink.com 1.10,2013-11-11 23:19:00,
2013-11-11 18:34:00,52.8,46.0,30.22,South,183,2.0,4.0,77,0.00,,,0.00,weatherlink.com 1.10,2013-11-11 23:34:00,
2013-11-11 18:49:00,53.0,46.0,30.22,SSW,210,3.0,5.0,78,0.00,,,0.00,weatherlink.com 1.10,2013-11-11 23:49:00,
2013-11-11 19:04:00,52.9,46.0,30.21,SSW,202,2.0,4.0,78,0.00,,,0.00,weatherlink.com 1.10,2013-11-12 00:04:00,
2013-11-11 19:19:00,52.9,47.0,30.21,South,175,2.0,4.0,79,0.00,,,0.00,weatherlink.com 1.10,2013-11-12 00:19:00,
2013-11-11 19:34:00,52.8,46.0,30.21,SSW,193,2.0,3.0,79,0.00,,,0.00,weatherlink.com 1.10,2013-11-12 00:34:00,
2013-11-11 19:49:00,53.0,47.0,30.20,South,175,2.0,3.0,79,0.00,,,0.00,weatherlink.com 1.10,2013-11-12 00:49:00,
2013-11-11 20:04:00,52.9,47.0,30.20,SSW,196,2.0,4.0,79,0.00,,,0.00,weatherlink.com 1.10,2013-11-12 01:04:00,
2013-11-11 20:19:00,52.9,47.0,30.20,South,187,3.0,4.0,80,0.00,,,0.00,weatherlink.com 1.10,2013-11-12 01:19:00,
2013-11-11 20:34:00,53.2,48.0,30.20,South,186,2.0,4.0,81,0.00,,,0.00,weatherlink.com 1.10,2013-11-12 01:34:00,
2013-11-11 20:49:00,53.3,48.0,30.20,South,172,2.0,4.0,81,0.00,,,0.00,weatherlink.com 1.10,2013-11-12 01:49:00,
2013-11-11 21:04:00,53.4,48.0,30.20,SSE,158,2.0,4.0,81,0.00,,,0.00,weatherlink.com 1.10,2013-11-12 02:04:00,
2013-11-11 21:19:00,53.4,48.0,30.20,SE,141,2.0,4.0,82,0.00,,,0.00,weatherlink.com 1.10,2013-11-12 02:19:00,
2013-11-11 21:34:00,53.4,48.0,30.19,South,182,4.0,4.0,82,0.00,,,0.00,weatherlink.com 1.10,2013-11-12 02:34:00,
2013-11-11 21:49:00,53.5,49.0,30.19,South,176,4.0,5.0,83,0.00,,,0.00,weatherlink.com 1.10,2013-11-12 02:49:00,
2013-11-11 22:04:00,53.7,48.0,30.19,SE,127,2.0,5.0,82,0.00,,,0.00,weatherlink.com 1.10,2013-11-12 03:04:00,
2013-11-11 22:19:00,54.0,47.0,30.19,ESE,121,2.0,5.0,78,0.00,,,0.00,weatherlink.com 1.10,2013-11-12 03:19:00,
2013-11-11 22:34:00,54.3,47.0,30.19,SE,134,4.0,7.0,75,0.00,,,0.00,weatherlink.com 1.10,2013-11-12 03:34:00,
2013-11-11 22:49:00,54.5,47.0,30.18,SSE,147,5.0,8.0,75,0.00,,,0.00,weatherlink.com 1.10,2013-11-12 03:49:00,
2013-11-11 23:04:00,54.6,47.0,30.18,SE,127,7.0,8.0,75,0.00,,,0.00,weatherlink.com 1.10,2013-11-12 04:04:00,
2013-11-11 23:19:00,54.6,47.0,30.17,ESE,117,3.0,6.0,76,0.00,,,0.00,weatherlink.com 1.10,2013-11-12 04:19:00,
2013-11-11 23:34:00,54.4,47.0,30.17,SE,126,2.0,5.0,76,0.00,,,0.00,weatherlink.com 1.10,2013-11-12 04:34:00,
2013-11-11 23:49:00,54.1,47.0,30.16,ESE,113,0.0,3.0,77,0.00,,,0.00,weatherlink.com 1.10,2013-11-12 04:49:00,